Location: Hamayl? Da??
(36.7028°N, 30.1716°E)
Time: 16:14:02
(UTC+00:00)

BREEZE-M DEB (TANK) - Pass Details

Date: 04 August 2024
Orbit: 301 x 14617 km, 49.5° (Epoch: 11 September)

Event Time Altitude Azimuth Distance (km) Brightness Sun altitude
Rises 18:14:06 0° 308° (NW) 2,295 8.2 -13.5°
Reaches altitude 10° 18:15:26 10° 309° (NW) 1,658 6.9 -13.8°
Maximum altitude 18:18:38 84° 37° (NE) 799 3.8 -14.3°
Enters shadow 18:24:45 19° 126° (SE) 3,249 6.2 -15.3°
